| time (UTC) | temp F | wind direction | speed MPH | gust MPH | rain 1hr in | rain 24hr in | rain mn in | humidity % | barometer mb |
| 20260509084543 | 89 | 244 | 4.0 | 10.0 | 0.00 | 0.00 | 0.00 | 11 | 1005.6 |
| 20260509084031 | 89 | 273 | 2.0 | 8.0 | 0.00 | 0.00 | 0.00 | 11 | 1005.6 |
| 20260509083529 | 89 | 257 | 5.0 | 10.0 | 0.00 | 0.00 | 0.00 | 10 | 1005.5 |
| 20260509083029 | 89 | 241 | 6.0 | 11.0 | 0.00 | 0.00 | 0.00 | 10 | 1005.4 |
| 20260509082530 | 89 | 298 | 7.0 | 13.0 | 0.00 | 0.00 | 0.00 | 10 | 1005.5 |
| 20260509082030 | 89 | 279 | 6.0 | 12.0 | 0.00 | 0.00 | 0.00 | 10 | 1005.4 |
| 20260509081537 | 89 | 240 | 6.0 | 13.0 | 0.00 | 0.00 | 0.00 | 10 | 1005.4 |
| 20260509081028 | 89 | 292 | 7.0 | 13.0 | 0.00 | 0.00 | 0.00 | 10 | 1005.4 |
| 20260509080526 | 89 | 266 | 7.0 | 13.0 | 0.00 | 0.00 | 0.00 | 10 | 1005.4 |
| 20260509080038 | 89 | 265 | 6.0 | 12.0 | 0.00 | 0.00 | 0.00 | 11 | 1005.4 |
| 20260509075530 | 89 | 271 | 6.0 | 15.0 | 0.00 | 0.00 | 0.00 | 11 | 1005.4 |
| 20260509075026 | 89 | 325 | 7.0 | 17.0 | 0.00 | 0.00 | 0.00 | 11 | 1005.4 |
| 20260509074525 | 89 | 308 | 9.0 | 17.0 | 0.00 | 0.00 | 0.00 | 12 | 1005.3 |
| 20260509074024 | 89 | 310 | 9.0 | 16.0 | 0.00 | 0.00 | 0.00 | 12 | 1005.3 |
| 20260509073528 | 89 | 306 | 9.0 | 16.0 | 0.00 | 0.00 | 0.00 | 12 | 1005.4 |
| 20260509073028 | 89 | 313 | 9.0 | 15.0 | 0.00 | 0.00 | 0.00 | 12 | 1005.5 |
| 20260509072524 | 89 | 288 | 8.0 | 17.0 | 0.00 | 0.00 | 0.00 | 12 | 1005.4 |
| 20260509072023 | 89 | 331 | 9.0 | 17.0 | 0.00 | 0.00 | 0.00 | 11 | 1005.4 |
| 20260509071522 | 89 | 290 | 9.0 | 15.0 | 0.00 | 0.00 | 0.00 | 11 | 1005.4 |
| 20260509071023 | 88 | 339 | 8.0 | 14.0 | 0.00 | 0.00 | 0.00 | 12 | 1005.4 |
| 20260509070521 | 88 | 306 | 9.0 | 14.0 | 0.00 | 0.00 | 0.00 | 12 | 1005.5 |
| 20260509070020 | 89 | 279 | 7.0 | 13.0 | 0.00 | 0.00 | 0.00 | 14 | 1005.4 |
| 20260509065519 | 89 | 296 | 9.0 | 13.0 | 0.00 | 0.00 | 0.00 | 12 | 1005.5 |
| 20260509065019 | 89 | 331 | 8.0 | 16.0 | 0.00 | 0.00 | 0.00 | 12 | 1005.4 |
| 20260509064519 | 89 | 299 | 7.0 | 16.0 | 0.00 | 0.00 | 0.00 | 13 | 1005.5 |
| 20260509064018 | 89 | 321 | 8.0 | 14.0 | 0.00 | 0.00 | 0.00 | 12 | 1005.5 |
| 20260509063520 | 89 | 250 | 7.0 | 16.0 | 0.00 | 0.00 | 0.00 | 12 | 1005.5 |
| 20260509063018 | 90 | 309 | 8.0 | 16.0 | 0.00 | 0.00 | 0.00 | 13 | 1005.4 |
| 20260509062518 | 90 | 300 | 9.0 | 16.0 | 0.00 | 0.00 | 0.00 | 11 | 1005.5 |
| 20260509062022 | 90 | 287 | 9.0 | 16.0 | 0.00 | 0.00 | 0.00 | 11 | 1005.4 |
| 20260509061518 | 91 | 279 | 9.0 | 16.0 | 0.00 | 0.00 | 0.00 | 11 | 1005.4 |
| 20260509061020 | 91 | 281 | 8.0 | 14.0 | 0.00 | 0.00 | 0.00 | 11 | 1005.4 |
| 20260509060517 | 91 | 309 | 9.0 | 14.0 | 0.00 | 0.00 | 0.00 | 11 | 1005.4 |
| 20260509060016 | 91 | 284 | 7.0 | 15.0 | 0.00 | 0.00 | 0.00 | 11 | 1005.3 |
| 20260509055516 | 91 | 315 | 9.0 | 15.0 | 0.00 | 0.00 | 0.00 | 11 | 1005.2 |
| 20260509055015 | 91 | 263 | 8.0 | 15.0 | 0.00 | 0.00 | 0.00 | 11 | 1005.2 |
| 20260509054518 | 91 | 297 | 10.0 | 15.0 | 0.00 | 0.00 | 0.00 | 11 | 1005.2 |
| 20260509054015 | 90 | 292 | 7.0 | 14.0 | 0.00 | 0.00 | 0.00 | 11 | 1005.2 |
| 20260509053515 | 91 | 332 | 7.0 | 15.0 | 0.00 | 0.00 | 0.00 | 12 | 1005.2 |
| 20260509053028 | 90 | 291 | 7.0 | 12.0 | 0.00 | 0.00 | 0.00 | 12 | 1005.3 |
| 20260509052514 | 90 | 304 | 7.0 | 12.0 | 0.00 | 0.00 | 0.00 | 12 | 1005.3 |
| 20260509052014 | 91 | 261 | 6.0 | 12.0 | 0.00 | 0.00 | 0.00 | 12 | 1005.4 |
| 20260509051516 | 91 | 265 | 4.0 | 11.0 | 0.00 | 0.00 | 0.00 | 13 | 1005.4 |
| 20260509051014 | 90 | 259 | 6.0 | 11.0 | 0.00 | 0.00 | 0.00 | 12 | 1005.4 |
| 20260509050515 | 90 | 286 | 5.0 | 11.0 | 0.00 | 0.00 | 0.00 | 12 | 1005.4 |
| 20260509050017 | 90 | 263 | 3.0 | 7.0 | 0.00 | 0.00 | 0.00 | 12 | 1005.4 |
| 20260509045516 | 90 | 275 | 2.0 | 6.0 | 0.00 | 0.00 | 0.00 | 13 | 1005.4 |
| 20260509045013 | 90 | 256 | 3.0 | 7.0 | 0.00 | 0.00 | 0.00 | 13 | 1005.4 |
| 20260509044513 | 90 | 290 | 2.0 | 9.0 | 0.00 | 0.00 | 0.00 | 13 | 1005.3 |
| 20260509044013 | 90 | 264 | 4.0 | 9.0 | 0.00 | 0.00 | 0.00 | 13 | 1005.3 |
| 20260509043512 | 90 | 300 | 3.0 | 8.0 | 0.00 | 0.00 | 0.00 | 14 | 1005.2 |
| 20260509043013 | 90 | 294 | 2.0 | 8.0 | 0.00 | 0.00 | 0.00 | 14 | 1005.2 |
| 20260509042513 | 90 | 219 | 2.0 | 5.0 | 0.00 | 0.00 | 0.00 | 14 | 1005.2 |
| 20260509042013 | 90 | 246 | 2.0 | 4.0 | 0.00 | 0.00 | 0.00 | 14 | 1005.1 |
| 20260509041513 | 90 | 300 | 1.0 | 4.0 | 0.00 | 0.00 | 0.00 | 14 | 1005.1 |
| 20260509041012 | 91 | 291 | 1.0 | 4.0 | 0.00 | 0.00 | 0.00 | 14 | 1005.1 |
| 20260509040512 | 91 | 248 | 1.0 | 4.0 | 0.00 | 0.00 | 0.00 | 14 | 1005.0 |
| 20260509040012 | 91 | 280 | 2.0 | 5.0 | 0.00 | 0.00 | 0.00 | 14 | 1004.9 |
| 20260509035512 | 91 | 259 | 3.0 | 7.0 | 0.00 | 0.00 | 0.00 | 13 | 1004.8 |
| 20260509035012 | 92 | 261 | 3.0 | 7.0 | 0.00 | 0.00 | 0.00 | 13 | 1004.8 |
| 20260509034511 | 92 | 269 | 4.0 | 7.0 | 0.00 | 0.00 | 0.00 | 13 | 1004.8 |
| 20260509034011 | 92 | 269 | 2.0 | 6.0 | 0.00 | 0.00 | 0.00 | 13 | 1004.7 |
| 20260509033512 | 92 | 256 | 1.0 | 9.0 | 0.00 | 0.00 | 0.00 | 13 | 1004.6 |
| 20260509033011 | 93 | 308 | 4.0 | 9.0 | 0.00 | 0.00 | 0.00 | 13 | 1004.7 |
| 20260509032511 | 93 | 290 | 3.0 | 8.0 | 0.00 | 0.00 | 0.00 | 13 | 1004.6 |
| 20260509032011 | 93 | 307 | 3.0 | 11.0 | 0.00 | 0.00 | 0.00 | 13 | 1004.5 |
| 20260509031510 | 93 | 272 | 2.0 | 9.0 | 0.00 | 0.00 | 0.00 | 13 | 1004.5 |
| 20260509031010 | 94 | 287 | 2.0 | 9.0 | 0.00 | 0.00 | 0.00 | 12 | 1004.4 |
| 20260509030509 | 94 | 263 | 4.0 | 9.0 | 0.00 | 0.00 | 0.00 | 12 | 1004.4 |
| 20260509030008 | 94 | 267 | 5.0 | 9.0 | 0.00 | 0.00 | 0.00 | 12 | 1004.3 |
| 20260509025508 | 94 | 276 | 1.0 | 8.0 | 0.00 | 0.00 | 0.00 | 11 | 1004.3 |
| 20260509025006 | 95 | 267 | 2.0 | 9.0 | 0.00 | 0.00 | 0.00 | 10 | 1004.3 |
| 20260509024506 | 95 | 270 | 5.0 | 9.0 | 0.00 | 0.00 | 0.00 | 10 | 1004.2 |
| 20260509024006 | 95 | 295 | 4.0 | 9.0 | 0.00 | 0.00 | 0.00 | 10 | 1004.1 |
| 20260509023506 | 95 | 280 | 3.0 | 8.0 | 0.00 | 0.00 | 0.00 | 10 | 1004.0 |
| 20260509023006 | 95 | 319 | 3.0 | 8.0 | 0.00 | 0.00 | 0.00 | 10 | 1003.9 |
| 20260509022508 | 95 | 307 | 1.0 | 7.0 | 0.00 | 0.00 | 0.00 | 10 | 1003.9 |
| 20260509022006 | 96 | 280 | 2.0 | 10.0 | 0.00 | 0.00 | 0.00 | 10 | 1003.9 |
| 20260509021506 | 96 | 282 | 5.0 | 13.0 | 0.00 | 0.00 | 0.00 | 10 | 1003.8 |
| 20260509021007 | 96 | 303 | 5.0 | 13.0 | 0.00 | 0.00 | 0.00 | 10 | 1003.8 |
| 20260509020506 | 96 | 292 | 6.0 | 10.0 | 0.00 | 0.00 | 0.00 | 10 | 1003.8 |
| 20260509020007 | 96 | 257 | 4.0 | 12.0 | 0.00 | 0.00 | 0.00 | 10 | 1003.8 |
| 20260509015504 | 97 | 310 | 5.0 | 12.0 | 0.00 | 0.00 | 0.00 | 11 | 1003.7 |
| 20260509015003 | 97 | 281 | 6.0 | 12.0 | 0.00 | 0.00 | 0.00 | 10 | 1003.7 |
| 20260509014508 | 97 | 283 | 3.0 | 8.0 | 0.00 | 0.00 | 0.00 | 10 | 1003.7 |
| 20260509014004 | 98 | 278 | 2.0 | 7.0 | 0.00 | 0.00 | 0.00 | 10 | 1003.7 |
| 20260509013503 | 98 | 302 | 3.0 | 11.0 | 0.00 | 0.00 | 0.00 | 10 | 1003.6 |
| 20260509013004 | 98 | 268 | 5.0 | 11.0 | 0.00 | 0.00 | 0.00 | 10 | 1003.7 |
| 20260509012503 | 98 | 257 | 2.0 | 7.0 | 0.00 | 0.00 | 0.00 | 10 | 1003.6 |
| 20260509012004 | 98 | 322 | 4.0 | 8.0 | 0.00 | 0.00 | 0.00 | 10 | 1003.6 |
| 20260509011503 | 98 | 279 | 4.0 | 10.0 | 0.00 | 0.00 | 0.00 | 10 | 1003.7 |
| 20260509011002 | 99 | 306 | 5.0 | 10.0 | 0.00 | 0.00 | 0.00 | 10 | 1003.8 |
| 20260509010504 | 99 | 306 | 4.0 | 9.0 | 0.00 | 0.00 | 0.00 | 10 | 1003.7 |
| 20260509010004 | 99 | 264 | 4.0 | 10.0 | 0.00 | 0.00 | 0.00 | 10 | 1003.7 |
| 20260509005505 | 99 | 271 | 4.0 | 10.0 | 0.00 | 0.00 | 0.00 | 10 | 1003.8 |
| 20260509005002 | 100 | 264 | 4.0 | 9.0 | 0.00 | 0.00 | 0.00 | 10 | 1003.7 |
| 20260509004501 | 100 | 267 | 4.0 | 10.0 | 0.00 | 0.00 | 0.00 | 10 | 1003.7 |
| 20260509004001 | 100 | 277 | 5.0 | 10.0 | 0.00 | 0.00 | 0.00 | 10 | 1003.8 |
| 20260509003504 | 101 | 167 | 3.0 | 7.0 | 0.00 | 0.00 | 0.00 | 10 | 1003.8 |
| 20260509003101 | 100 | 240 | 1.0 | 7.0 | 0.00 | 0.00 | 0.00 | 11 | 1003.9 |
| 20260509002601 | 100 | 317 | 3.0 | 13.0 | 0.00 | 0.00 | 0.00 | 10 | 1003.9 |
| 20260509002100 | 101 | 298 | 6.0 | 13.0 | 0.00 | 0.00 | 0.00 | 9 | 1004.0 |
| 20260509001600 | 101 | 208 | 2.0 | 9.0 | 0.00 | 0.00 | 0.00 | 10 | 1004.0 |
| 20260509001100 | 101 | 249 | 3.0 | 11.0 | 0.00 | 0.00 | 0.00 | 10 | 1004.0 |
| 20260509000602 | 102 | 299 | 4.0 | 7.0 | 0.00 | 0.00 | 0.00 | 10 | 1004.1 |
| 20260509000059 | 101 | 88 | 1.0 | 5.0 | 0.00 | 0.00 | 0.00 | 10 | 1004.0 |
| 20260508235557 | 101 | 243 | 1.0 | 10.0 | 0.00 | 0.00 | 0.00 | 11 | 1004.1 |
| 20260508235057 | 101 | 332 | 2.0 | 10.0 | 0.00 | 0.00 | 0.00 | 10 | 1004.2 |
| 20260508234557 | 101 | 295 | 3.0 | 8.0 | 0.00 | 0.00 | 0.00 | 10 | 1004.2 |
| 20260508234056 | 101 | 264 | 3.0 | 10.0 | 0.00 | 0.00 | 0.00 | 10 | 1004.2 |
| 20260508233555 | 101 | 273 | 2.0 | 14.0 | 0.00 | 0.00 | 0.00 | 10 | 1004.3 |
| 20260508233114 | 101 | 251 | 1.0 | 14.0 | 0.00 | 0.00 | 0.00 | 10 | 1004.4 |
| 20260508232554 | 101 | 212 | 4.0 | 14.0 | 0.00 | 0.00 | 0.00 | 10 | 1004.4 |
| 20260508232055 | 101 | 296 | 4.0 | 9.0 | 0.00 | 0.00 | 0.00 | 10 | 1004.5 |
| 20260508231556 | 101 | 222 | 2.0 | 8.0 | 0.00 | 0.00 | 0.00 | 9 | 1004.4 |
| 20260508231051 | 101 | 195 | 4.0 | 8.0 | 0.00 | 0.00 | 0.00 | 10 | 1004.5 |
| 20260508230551 | 100 | 303 | 1.0 | 12.0 | 0.00 | 0.00 | 0.00 | 10 | 1004.5 |
| 20260508230056 | 100 | 324 | 4.0 | 12.0 | 0.00 | 0.00 | 0.00 | 11 | 1004.7 |
| 20260508225549 | 100 | 273 | 4.0 | 10.0 | 0.00 | 0.00 | 0.00 | 10 | 1004.6 |
| 20260508225049 | 100 | 277 | 4.0 | 11.0 | 0.00 | 0.00 | 0.00 | 10 | 1004.8 |
| 20260508224605 | 100 | 202 | 4.0 | 11.0 | 0.00 | 0.00 | 0.00 | 11 | 1004.7 |
| 20260508224048 | 100 | 269 | 4.0 | 11.0 | 0.00 | 0.00 | 0.00 | 11 | 1004.8 |
| 20260508223548 | 100 | 297 | 6.0 | 10.0 | 0.00 | 0.00 | 0.00 | 11 | 1004.9 |
| 20260508223047 | 100 | 209 | 3.0 | 10.0 | 0.00 | 0.00 | 0.00 | 12 | 1005.0 |
| 20260508222546 | 100 | 235 | 4.0 | 9.0 | 0.00 | 0.00 | 0.00 | 11 | 1005.1 |
| 20260508222045 | 100 | 219 | 2.0 | 12.0 | 0.00 | 0.00 | 0.00 | 11 | 1005.2 |
| 20260508221545 | 100 | 299 | 4.0 | 12.0 | 0.00 | 0.00 | 0.00 | 11 | 1005.4 |
| 20260508221044 | 100 | 214 | 3.0 | 9.0 | 0.00 | 0.00 | 0.00 | 12 | 1005.2 |
| 20260508220542 | 99 | 214 | 2.0 | 14.0 | 0.00 | 0.00 | 0.00 | 12 | 1005.5 |
| 20260508220042 | 99 | 275 | 7.0 | 14.0 | 0.00 | 0.00 | 0.00 | 12 | 1005.7 |
| 20260508215540 | 99 | 259 | 5.0 | 12.0 | 0.00 | 0.00 | 0.00 | 12 | 1005.8 |
| 20260508215040 | 99 | 265 | 2.0 | 10.0 | 0.00 | 0.00 | 0.00 | 12 | 1005.8 |
| 20260508214539 | 99 | 244 | 3.0 | 8.0 | 0.00 | 0.00 | 0.00 | 14 | 1006.1 |
| 20260508214040 | 98 | 239 | 2.0 | 8.0 | 0.00 | 0.00 | 0.00 | 14 | 1006.0 |
| 20260508213540 | 97 | 327 | 1.0 | 14.0 | 0.00 | 0.00 | 0.00 | 14 | 1006.1 |
| 20260508213038 | 97 | 296 | 5.0 | 14.0 | 0.00 | 0.00 | 0.00 | 13 | 1006.3 |
| 20260508212533 | 97 | 259 | 5.0 | 13.0 | 0.00 | 0.00 | 0.00 | 14 | 1006.4 |
| 20260508212033 | 97 | 263 | 2.0 | 12.0 | 0.00 | 0.00 | 0.00 | 14 | 1006.5 |
| 20260508211537 | 97 | 274 | 5.0 | 12.0 | 0.00 | 0.00 | 0.00 | 14 | 1006.6 |
| 20260508211032 | 97 | 300 | 6.0 | 11.0 | 0.00 | 0.00 | 0.00 | 16 | 1006.7 |
| 20260508210530 | 97 | 297 | 7.0 | 10.0 | 0.00 | 0.00 | 0.00 | 15 | 1006.8 |
| 20260508210031 | 96 | 274 | 2.0 | 11.0 | 0.00 | 0.00 | 0.00 | 15 | 1006.8 |
| 20260508205528 | 96 | 275 | 5.0 | 11.0 | 0.00 | 0.00 | 0.00 | 15 | 1007.0 |
| 20260508205031 | 97 | 271 | 3.0 | 10.0 | 0.00 | 0.00 | 0.00 | 15 | 1007.0 |
| 20260508204527 | 96 | 236 | 3.0 | 10.0 | 0.00 | 0.00 | 0.00 | 16 | 1007.1 |
| 20260508204026 | 96 | 216 | 3.0 | 12.0 | 0.00 | 0.00 | 0.00 | 16 | 1007.2 |
| 20260508203525 | 96 | 282 | 4.0 | 12.0 | 0.00 | 0.00 | 0.00 | 15 | 1007.2 |
| 20260508203025 | 96 | 297 | 3.0 | 10.0 | 0.00 | 0.00 | 0.00 | 15 | 1007.3 |
| 20260508202525 | 96 | 286 | 2.0 | 8.0 | 0.00 | 0.00 | 0.00 | 15 | 1007.3 |
| 20260508202023 | 96 | 250 | 4.0 | 6.0 | 0.00 | 0.00 | 0.00 | 15 | 1007.5 |
| 20260508201523 | 96 | 305 | 3.0 | 8.0 | 0.00 | 0.00 | 0.00 | 15 | 1007.5 |
| 20260508201022 | 95 | 210 | 4.0 | 8.0 | 0.00 | 0.00 | 0.00 | 15 | 1007.6 |
| 20260508200522 | 95 | 224 | 3.0 | 8.0 | 0.00 | 0.00 | 0.00 | 15 | 1007.8 |
| 20260508200027 | 95 | 260 | 4.0 | 8.0 | 0.00 | 0.00 | 0.00 | 15 | 1007.8 |
| 20260508195520 | 96 | 216 | 3.0 | 9.0 | 0.00 | 0.00 | 0.00 | 15 | 1007.8 |
| 20260508195022 | 96 | 300 | 2.0 | 7.0 | 0.00 | 0.00 | 0.00 | 15 | 1007.9 |
| 20260508194519 | 96 | 233 | 2.0 | 7.0 | 0.00 | 0.00 | 0.00 | 15 | 1007.9 |
| 20260508194019 | 96 | 159 | 3.0 | 7.0 | 0.00 | 0.00 | 0.00 | 15 | 1007.9 |
| 20260508193517 | 95 | 168 | 2.0 | 7.0 | 0.00 | 0.00 | 0.00 | 15 | 1008.0 |
| 20260508193016 | 95 | 277 | 1.0 | 8.0 | 0.00 | 0.00 | 0.00 | 17 | 1008.1 |
| 20260508192514 | 94 | 223 | 2.0 | 8.0 | 0.00 | 0.00 | 0.00 | 17 | 1008.1 |
| 20260508192013 | 94 | 184 | 1.0 | 5.0 | 0.00 | 0.00 | 0.00 | 17 | 1008.3 |
| 20260508191514 | 94 | 188 | 2.0 | 5.0 | 0.00 | 0.00 | 0.00 | 16 | 1008.4 |
| 20260508191011 | 94 | 173 | 1.0 | 6.0 | 0.00 | 0.00 | 0.00 | 16 | 1008.5 |
| 20260508190510 | 94 | 184 | 1.0 | 7.0 | 0.00 | 0.00 | 0.00 | 18 | 1008.5 |
| 20260508190008 | 94 | 139 | 1.0 | 5.0 | 0.00 | 0.00 | 0.00 | 17 | 1008.7 |
| 20260508185507 | 93 | 175 | 1.0 | 5.0 | 0.00 | 0.00 | 0.00 | 17 | 1008.7 |
| 20260508185006 | 93 | 200 | 1.0 | 5.0 | 0.00 | 0.00 | 0.00 | 17 | 1008.8 |
| 20260508184507 | 93 | 196 | 0.0 | 4.0 | 0.00 | 0.00 | 0.00 | 18 | 1008.8 |
| 20260508184004 | 92 | 186 | 1.0 | 5.0 | 0.00 | 0.00 | 0.00 | 16 | 1008.9 |
| 20260508183502 | 91 | 114 | 2.0 | 5.0 | 0.00 | 0.00 | 0.00 | 17 | 1008.9 |
| 20260508183001 | 91 | 161 | 1.0 | 4.0 | 0.00 | 0.00 | 0.00 | 17 | 1009.0 |
| 20260508182600 | 91 | 129 | 1.0 | 3.0 | 0.00 | 0.00 | 0.00 | 17 | 1009.1 |
| 20260508182100 | 91 | 96 | 1.0 | 4.0 | 0.00 | 0.00 | 0.00 | 17 | 1009.2 |
| 20260508181557 | 91 | 102 | 1.0 | 4.0 | 0.00 | 0.00 | 0.00 | 18 | 1009.2 |
| 20260508181057 | 90 | 126 | 0.0 | 4.0 | 0.00 | 0.00 | 0.00 | 16 | 1009.3 |
| 20260508180554 | 90 | 161 | 1.0 | 4.0 | 0.00 | 0.00 | 0.00 | 17 | 1009.4 |
| 20260508180053 | 89 | 348 | 0.0 | 3.0 | 0.00 | 0.00 | 0.00 | 17 | 1009.4 |
| 20260508175552 | 89 | 153 | 1.0 | 5.0 | 0.00 | 0.00 | 0.00 | 17 | 1009.5 |
| 20260508175050 | 88 | 155 | 0.0 | 5.0 | 0.00 | 0.00 | 0.00 | 18 | 1009.5 |
| 20260508174603 | 88 | 67 | 0.0 | 5.0 | 0.00 | 0.00 | 0.00 | 17 | 1009.6 |
| 20260508174047 | 88 | 292 | 0.0 | 2.0 | 0.00 | 0.00 | 0.00 | 17 | 1009.6 |
| 20260508173546 | 88 | 178 | 0.0 | 2.0 | 0.00 | 0.00 | 0.00 | 19 | 1009.6 |
| 20260508173047 | 87 | 138 | 0.0 | 2.0 | 0.00 | 0.00 | 0.00 | 18 | 1009.6 |
| 20260508172543 | 87 | 200 | 0.0 | 2.0 | 0.00 | 0.00 | 0.00 | 18 | 1009.6 |
| 20260508172042 | 86 | 94 | 0.0 | 4.0 | 0.00 | 0.00 | 0.00 | 18 | 1009.7 |
| 20260508171541 | 86 | 114 | 1.0 | 4.0 | 0.00 | 0.00 | 0.00 | 18 | 1009.8 |
| 20260508171040 | 86 | 126 | 0.0 | 2.0 | 0.00 | 0.00 | 0.00 | 17 | 1009.8 |
| 20260508170540 | 85 | 105 | 0.0 | 3.0 | 0.00 | 0.00 | 0.00 | 16 | 1009.8 |
| 20260508170040 | 0 | 0.0 | 0.0 | 0.00 | 0.00 | 0.00 | 1009.8 | ||
| 20260508121529 | 71 | 53 | 1.0 | 4.0 | 0.00 | 0.00 | 0.00 | 21 | 1008.3 |
| 20260508121027 | 71 | 86 | 0.0 | 5.0 | 0.00 | 0.00 | 0.00 | 21 | 1008.3 |
| 20260508120526 | 72 | 50 | 3.0 | 5.0 | 0.00 | 0.00 | 0.00 | 21 | 1008.3 |
| 20260508120025 | 73 | 50 | 0.0 | 3.0 | 0.00 | 0.00 | 0.00 | 21 | 1008.3 |
| 20260508115524 | 74 | 45 | 0.0 | 2.0 | 0.00 | 0.00 | 0.00 | 21 | 1008.3 |
| 20260508115021 | 74 | 39 | 0.0 | 4.0 | 0.00 | 0.00 | 0.00 | 24 | 1008.2 |
| 20260508114525 | 75 | 347 | 1.0 | 4.0 | 0.00 | 0.00 | 0.00 | 25 | 1008.1 |
| 20260508114021 | 74 | 305 | 1.0 | 4.0 | 0.00 | 0.00 | 0.00 | 25 | 1008.0 |
| 20260508113520 | 74 | 232 | 1.0 | 4.0 | 0.00 | 0.00 | 0.00 | 25 | 1007.9 |
| 20260508113021 | 74 | 265 | 0.0 | 4.0 | 0.00 | 0.00 | 0.00 | 25 | 1007.9 |
| 20260508112519 | 74 | 267 | 1.0 | 3.0 | 0.00 | 0.00 | 0.00 | 24 | 1008.0 |
| 20260508112019 | 75 | 275 | 1.0 | 3.0 | 0.00 | 0.00 | 0.00 | 24 | 1007.9 |
| 20260508111520 | 75 | 267 | 1.0 | 3.0 | 0.00 | 0.00 | 0.00 | 23 | 1008.0 |
| 20260508111020 | 75 | 282 | 0.0 | 3.0 | 0.00 | 0.00 | 0.00 | 23 | 1007.9 |
| 20260508110518 | 75 | 282 | 1.0 | 3.0 | 0.00 | 0.00 | 0.00 | 24 | 1007.9 |
| 20260508110018 | 75 | 261 | 0.0 | 3.0 | 0.00 | 0.00 | 0.00 | 24 | 1007.9 |
| 20260508105517 | 75 | 260 | 0.0 | 3.0 | 0.00 | 0.00 | 0.00 | 24 | 1007.9 |
| 20260508105016 | 75 | 240 | 0.0 | 3.0 | 0.00 | 0.00 | 0.00 | 23 | 1007.9 |
| 20260508104516 | 75 | 216 | 0.0 | 2.0 | 0.00 | 0.00 | 0.00 | 23 | 1008.0 |
| 20260508104014 | 76 | 196 | 0.0 | 2.0 | 0.00 | 0.00 | 0.00 | 22 | 1008.0 |
| 20260508103513 | 76 | 223 | 0.0 | 2.0 | 0.00 | 0.00 | 0.00 | 21 | 1007.9 |
| 20260508103011 | 76 | 234 | 0.0 | 2.0 | 0.00 | 0.00 | 0.00 | 21 | 1007.9 |
| 20260508102511 | 77 | 234 | 0.0 | 2.0 | 0.00 | 0.00 | 0.00 | 21 | 1007.9 |
| 20260508102011 | 77 | 242 | 0.0 | 2.0 | 0.00 | 0.00 | 0.00 | 23 | 1007.9 |
| 20260508101514 | 78 | 263 | 0.0 | 2.0 | 0.00 | 0.00 | 0.00 | 20 | 1007.9 |
| 20260508101008 | 78 | 247 | 0.0 | 2.0 | 0.00 | 0.00 | 0.00 | 20 | 1008.0 |
| 20260508100506 | 78 | 191 | 0.0 | 2.0 | 0.00 | 0.00 | 0.00 | 19 | 1008.0 |
| 20260508100007 | 79 | 199 | 0.0 | 2.0 | 0.00 | 0.00 | 0.00 | 18 | 1008.0 |
| 20260508095504 | 79 | 199 | 0.0 | 2.0 | 0.00 | 0.00 | 0.00 | 18 | 1007.9 |
| 20260508095004 | 79 | 286 | 0.0 | 3.0 | 0.00 | 0.00 | 0.00 | 19 | 1007.9 |
| 20260508094511 | 79 | 248 | 1.0 | 6.0 | 0.00 | 0.00 | 0.00 | 18 | 1007.9 |
| 20260508094004 | 79 | 246 | 0.0 | 6.0 | 0.00 | 0.00 | 0.00 | 18 | 1007.8 |
| 20260508093504 | 79 | 248 | 1.0 | 6.0 | 0.00 | 0.00 | 0.00 | 18 | 1007.8 |
| 20260508093004 | 80 | 290 | 0.0 | 6.0 | 0.00 | 0.00 | 0.00 | 17 | 1007.8 |
| 20260508092507 | 80 | 286 | 0.0 | 8.0 | 0.00 | 0.00 | 0.00 | 17 | 1007.7 |
| 20260508092003 | 79 | 289 | 3.0 | 8.0 | 0.00 | 0.00 | 0.00 | 17 | 1007.7 |
| 20260508091503 | 79 | 243 | 1.0 | 9.0 | 0.00 | 0.00 | 0.00 | 17 | 1007.7 |
| 20260508091002 | 79 | 257 | 1.0 | 9.0 | 0.00 | 0.00 | 0.00 | 17 | 1007.7 |
| 20260508090503 | 79 | 265 | 3.0 | 7.0 | 0.00 | 0.00 | 0.00 | 17 | 1007.7 |
| 20260508090003 | 79 | 240 | 1.0 | 7.0 | 0.00 | 0.00 | 0.00 | 17 | 1007.7 |
| 20260508085503 | 79 | 259 | 3.0 | 6.0 | 0.00 | 0.00 | 0.00 | 17 | 1007.7 |
| 20260508085002 | 79 | 284 | 3.0 | 6.0 | 0.00 | 0.00 | 0.00 | 17 | 1007.8 |